Georgetown, DE

7:26 AM EST on February 25, 2017 (GMT -0500)
Sussex County

Weather History for KGED - April, 2013

Change the Weather History Date:

Friday, April 26, 2013

  Actual Average Record
Temperature  
Mean Temperature 55 °F 57 °F  
Max Temperature 69 °F 68 °F 94 °F (2009)
Min Temperature 40 °F 47 °F 30 °F (1964)
Degree Days  
Heating Degree Days 10 9  
Month to date heating degree days 263 316  
Since 1 July heating degree days 3975 4228  
Cooling Degree Days 0 1  
Month to date cooling degree days 31 16  
Year to date cooling degree days 31 18  
Growing Degree Days 4 (Base 50)    
Moisture  
Dew Point 36 °F    
Average Humidity 58    
Maximum Humidity 89    
Minimum Humidity 26    
Precipitation  
Precipitation 0.00 in 0.10 in 1.15 in (1975)
Month to date precipitation 2.56 3.25  
Year to date precipitation 11.11 13.01  
Sea Level Pressure  
Sea Level Pressure 30.38 in    
Wind  
Wind Speed 4 mph (West)    
Max Wind Speed 13 mph    
Max Gust Speed 17 mph    
Visibility 10 miles    
Events      
T = Trace of Precipitation, MM = Missing Value Source: NWS Daily Summary

Daily Weather History Graph

Daily Weather History Graph

Search for Another Location

Airport or City:

Trip Planner

Search our weather history database for the weather conditions in past years. The results will help you decide how hot, cold, wet, or windy it might be!

Date:

Astronomy

Apr. 26, 2013 Rise Set
Actual Time 6:09 AM EDT 7:49 PM EDT
Civil Twilight 5:41 AM EDT 8:17 PM EDT
Nautical Twilight 5:07 AM EDT 8:51 PM EDT
Astronomical Twilight 4:31 AM EDT 9:28 PM EDT
Moon 9:08 PM EDT (4/26) 6:36 AM EDT (4/26)
Length of Visible Light 14h 35m
Length of Day
13h 39m
Full, 99% of the Moon is Illuminated
Apr 26
Full
May 2
Last Quarter
May 9
New
May 18
First Quarter
May 25
Full

Hourly Weather History & Observations

Time (EDT) Temp. Windchill Dew Point Humidity Pressure Visibility Wind Dir Wind Speed Gust Speed Precip Events Conditions
12:54 AM 44.1 °F - 37.0 °F 76% 30.31 in 10.0 mi Calm Calm - N/A   Clear
1:54 AM 45.0 °F 43.5 °F 39.0 °F 80% 30.31 in 10.0 mi SW 3.5 mph - N/A   Clear
2:54 AM 43.0 °F - 39.0 °F 86% 30.31 in 10.0 mi Calm Calm - N/A   Clear
3:54 AM 41.0 °F 39.0 °F 37.9 °F 89% 30.33 in 10.0 mi SW 3.5 mph - N/A   Clear
4:54 AM 42.1 °F - 39.0 °F 89% 30.35 in 10.0 mi Calm Calm - N/A   Clear
5:54 AM 41.0 °F - 37.0 °F 86% 30.36 in 9.0 mi Calm Calm - N/A   Mostly Cloudy
6:54 AM 41.0 °F - 37.9 °F 89% 30.39 in 9.0 mi Calm Calm - N/A   Clear
7:54 AM 48.9 °F - 41.0 °F 74% 30.41 in 10.0 mi North 3.5 mph - N/A   Clear
8:54 AM 55.9 °F - 39.9 °F 55% 30.41 in 10.0 mi NNE 8.1 mph - N/A   Clear
9:54 AM 60.1 °F - 37.9 °F 44% 30.42 in 10.0 mi NNE 6.9 mph - N/A   Clear
10:54 AM 63.0 °F - 35.1 °F 35% 30.43 in 10.0 mi North 5.8 mph 16.1 mph N/A   Clear
11:54 AM 64.9 °F - 34.0 °F 32% 30.42 in 10.0 mi West 8.1 mph - N/A   Clear
12:54 PM 64.9 °F - 34.0 °F 32% 30.40 in 10.0 mi WNW 8.1 mph - N/A   Partly Cloudy
1:54 PM 64.9 °F - 34.0 °F 32% 30.38 in 10.0 mi Calm Calm - N/A   Clear
2:54 PM 68.0 °F - 33.1 °F 27% 30.38 in 10.0 mi West 9.2 mph 17.3 mph N/A   Partly Cloudy
3:54 PM 66.0 °F - 33.1 °F 29% 30.36 in 10.0 mi Calm Calm - N/A   Clear
4:54 PM 66.9 °F - 30.9 °F 26% 30.38 in 10.0 mi West 8.1 mph 16.1 mph N/A   Clear
5:54 PM 66.0 °F - 30.0 °F 26% 30.37 in 10.0 mi SSW 5.8 mph - N/A   Clear
6:54 PM 61.0 °F - 36.0 °F 39% 30.38 in 10.0 mi SE 5.8 mph - N/A   Clear
7:54 PM 55.9 °F - 35.1 °F 45% 30.39 in 10.0 mi ESE 5.8 mph - N/A   Clear
8:54 PM 54.0 °F - 35.1 °F 49% 30.41 in 10.0 mi SE 3.5 mph - N/A   Clear
9:54 PM 53.1 °F - 36.0 °F 52% 30.43 in 10.0 mi Calm Calm - N/A   Clear
10:54 PM 48.9 °F - 37.0 °F 64% 30.43 in 10.0 mi Calm Calm - N/A   Clear
11:54 PM 46.0 °F - 37.0 °F 71% 30.43 in 10.0 mi Calm Calm - N/A   Clear